Location: Dos Palmas
(32.4468°N, 116.8732°W)
Time: 05:29:52
(UTC+00:00)

Lacrosse 4 Rocket - Pass Details

Date: 20 June 2021
Orbit: 543 x 614 km, 68.0° (Epoch: 29 July)

Event Time Altitude Azimuth Distance (km) Brightness Sun altitude
Rises 09:13:54 0° 355° (N) 2,724 5.7 -30.6°
Reaches altitude 10° 09:16:50 10° 17° (NNE) 1,818 4.9 -30.3°
Maximum altitude 09:19:24 16° 57° (ENE) 1,461 4.0 -30.1°
Enters shadow 09:20:55 14° 83° (E) 1,591 4.0 -30.0°
